Hourly Data Report for January 01, 2018

All times are specified in Local Standard Time (LST). Add 1 hour to adjust for Daylight Saving Time where and when it is observed.

VANCOUVER INTL A
BRITISH COLUMBIA

49°11'41.000" N
123°11'02.000" W
4.30 m
1108395
71892
YVR

Download Data

Hourly Data (January 2018)
Hourly Data Report for January 1, 2018
Temp Definition
°C
Dew Point Temp Definition
°C
Rel Hum Definition
%
Wind Dir Definition
10's deg

Wind Spd Definition
km/h
Visibility Definition
km
Stn Press Definition
kPa
Hmdx Definition


Wind Chill Definition


Weather Definition


TIME
00:00 Legend Double Dagger -2.6 -3.5 94 10 10 32.2 102.71   -6 LegendNANA
01:00 Legend Double Dagger -2.2 -3.4 91 10 11 32.2 102.76   -6 Mainly Clear
02:00 Legend Double Dagger -3.2 -4.1 94 9 10 24.1 102.80   -7 LegendNANA
03:00 Legend Double Dagger -4.1 -4.9 94 10 14 24.1 102.86   -9 LegendNANA
04:00 Legend Double Dagger -2.8 -3.3 96 7 8 24.1 102.90   -6 Mainly Clear
05:00 Legend Double Dagger -4.0 -4.4 97 10 10 24.1 102.89   -8 LegendNANA
06:00 Legend Double Dagger -3.3 -3.7 97 9 8 24.1 102.97   -7 LegendNANA
07:00 Legend Double Dagger -2.8 -3.2 97 10 15 32.2 102.99   -8 Cloudy
08:00 Legend Double Dagger -2.4 -2.8 97 10 15 48.3 103.01   -7 LegendNANA
09:00 Legend Double Dagger -2.8 -3.4 96 10 9 48.3 103.07   -6 LegendNANA
10:00 Legend Double Dagger -1.1 -1.7 95 7 5 48.3 103.14   -3 Cloudy
11:00 Legend Double Dagger 0.8 -0.9 88 12 5 48.3 103.13     LegendNANA
12:00 Legend Double Dagger 1.9 -1.1 80 24 4 48.3 103.09     LegendNANA
13:00 Legend Double Dagger 2.1 -0.8 81 21 9 48.3 103.07     Cloudy
14:00 Legend Double Dagger 2.8 0.2 83 23 9 48.3 103.08     LegendNANA
15:00 Legend Double Dagger 2.4 0.4 87 21 5 48.3 103.08     LegendNANA
16:00 Legend Double Dagger 2.4 0.7 88 33 3 48.3 103.12     Mostly Cloudy
17:00 Legend Double Dagger 1.5 0.4 92 33 4 48.3 103.13     LegendNANA
18:00 Legend Double Dagger -0.2 -1.2 93 10 14 48.3 103.13   -4 LegendNANA
19:00 Legend Double Dagger -0.9 -1.8 94 10 13 32.2 103.11   -5 Mainly Clear
20:00 Legend Double Dagger -1.6 -2.2 96 8 8 32.2 103.12   -5 LegendNANA
21:00 Legend Double Dagger -1.0 -1.7 95 9 6 32.2 103.12   -3 LegendNANA
22:00 Legend Double Dagger -1.6 -2.7 92 11 7 32.2 103.12   -4 Mostly Cloudy
23:00 Legend Double Dagger -1.5 -2.3 94 10 7 32.2 103.14   -4 LegendNANA

Notes on Data Quality.

Legend

  • E = Estimated
  • M = Missing
  • NA = Not Available
  • ‡ = Partner data that is not subject to review by the National Climate Archives
Date modified: